BAW992G EGLL-EDDB

Flight info

Callsign BAW992G
Flight time N/A
Altitude 37000
Route EGLL/09R BPK Q295 BRAIN M197 REDFA DCT TACHA DCT NIE DCT BATEL T207 OGBER OGBER1R
Aircraft A320/M-SDE3FGIJ1KRWXY/SB1

Departure

Time N/A
Airport London Heathrow Airport (EGLL)

Arrival

Time 2026-05-05 11:50
Airport Berlin Brandenburg Airport (EDDB)
Time Latitude Longitude Altitude Speed Heading
2026-05-05 10:35 51.81042 0.64221 21751 ft 407 kts 83°
2026-05-05 10:35 51.81627 0.68540 22123 ft 412 kts 77°
2026-05-05 10:35 51.82351 0.73208 22555 ft 415 kts 77°
2026-05-05 10:35 51.83054 0.77752 22979 ft 418 kts 77°
2026-05-05 10:36 51.83761 0.82325 23396 ft 421 kts 77°
2026-05-05 10:36 51.84527 0.86908 23767 ft 424 kts 76°
2026-05-05 10:36 51.85360 0.91508 24109 ft 427 kts 75°
2026-05-05 10:36 51.86173 0.95832 24423 ft 430 kts 75°
2026-05-05 10:37 51.87054 1.00472 24741 ft 433 kts 75°
2026-05-05 10:37 51.87934 1.05147 25059 ft 436 kts 75°
2026-05-05 10:37 51.88807 1.09864 25384 ft 439 kts 75°
2026-05-05 10:37 51.89672 1.14619 25699 ft 442 kts 75°
2026-05-05 10:38 51.90530 1.19404 26018 ft 444 kts 76°
2026-05-05 10:38 51.91386 1.24224 26329 ft 447 kts 76°
2026-05-05 10:38 51.92248 1.29082 26648 ft 450 kts 76°
2026-05-05 10:38 51.93102 1.33892 26958 ft 452 kts 76°
2026-05-05 10:39 51.93977 1.38819 27282 ft 455 kts 76°
2026-05-05 10:39 51.94852 1.43765 27596 ft 458 kts 76°
2026-05-05 10:39 51.95732 1.48740 27902 ft 461 kts 75°
2026-05-05 10:39 51.96616 1.53749 28220 ft 463 kts 75°
2026-05-05 10:40 51.97502 1.58788 28528 ft 466 kts 75°
2026-05-05 10:40 51.98389 1.63851 28900 ft 467 kts 75°
2026-05-05 10:40 51.99274 1.68925 29342 ft 466 kts 76°
2026-05-05 10:40 52.00122 1.73998 29776 ft 466 kts 76°
2026-05-05 10:41 52.00926 1.79086 30184 ft 466 kts 77°
2026-05-05 10:41 52.01702 1.84188 30566 ft 465 kts 77°
2026-05-05 10:41 52.02465 1.89276 30999 ft 463 kts 77°
2026-05-05 10:41 52.03227 1.94349 31432 ft 462 kts 77°
2026-05-05 10:42 52.04759 2.04440 32292 ft 458 kts 77°
2026-05-05 10:42 52.05526 2.09455 32749 ft 456 kts 77°
2026-05-05 10:42 52.06279 2.14376 33199 ft 454 kts 77°
2026-05-05 10:43 52.07039 2.19348 33657 ft 452 kts 77°
2026-05-05 10:43 52.07795 2.24300 34089 ft 450 kts 77°
2026-05-05 10:43 52.08544 2.29228 34424 ft 449 kts 77°
2026-05-05 10:43 52.09287 2.34158 34729 ft 448 kts 77°
2026-05-05 10:44 52.10025 2.39089 34933 ft 449 kts 77°
2026-05-05 10:44 52.11508 2.49082 34980 ft 461 kts 77°
2026-05-05 10:45 52.13277 2.59184 34980 ft 466 kts 73°
2026-05-05 10:45 52.15301 2.69223 34980 ft 467 kts 72°
2026-05-05 10:46 52.17294 2.79284 34980 ft 467 kts 73°
2026-05-05 10:46 52.19201 2.89391 34983 ft 467 kts 74°
2026-05-05 10:47 52.21079 2.99534 34971 ft 468 kts 74°
2026-05-05 10:47 52.22955 3.09700 34968 ft 469 kts 74°
2026-05-05 10:48 52.24838 3.19908 34999 ft 470 kts 75°
2026-05-05 10:48 52.26149 3.30310 35001 ft 468 kts 84°
2026-05-05 10:49 52.27047 3.40836 34997 ft 468 kts 84°
2026-05-05 10:49 52.27947 3.51373 34988 ft 469 kts 84°
2026-05-05 10:50 52.28839 3.61932 34980 ft 469 kts 84°
2026-05-05 10:50 52.29570 3.70709 34983 ft 470 kts 84°
2026-05-05 10:51 52.30442 3.81291 34981 ft 470 kts 84°
2026-05-05 10:51 52.31307 3.91882 34983 ft 470 kts 84°
2026-05-05 10:52 52.32163 4.02479 34974 ft 471 kts 84°
2026-05-05 10:52 52.32996 4.13098 34977 ft 471 kts 84°
2026-05-05 10:53 52.33832 4.23727 34969 ft 472 kts 84°
2026-05-05 10:53 52.34668 4.34370 34972 ft 472 kts 84°
2026-05-05 10:54 52.35484 4.45016 34976 ft 472 kts 85°
2026-05-05 10:54 52.36287 4.55672 34978 ft 472 kts 85°
2026-05-05 10:55 52.37086 4.66331 34977 ft 472 kts 85°
2026-05-05 10:55 52.37876 4.76993 34994 ft 472 kts 85°
2026-05-05 10:56 52.38644 4.87591 34993 ft 472 kts 85°
2026-05-05 10:56 52.39414 4.98255 34959 ft 472 kts 85°
2026-05-05 10:57 52.40177 5.08935 34968 ft 472 kts 85°
2026-05-05 10:57 52.40929 5.19611 34978 ft 472 kts 85°
2026-05-05 10:58 52.41666 5.30305 34994 ft 472 kts 85°
2026-05-05 10:58 52.42381 5.40674 34995 ft 471 kts 85°
2026-05-05 10:59 52.43102 5.51344 34974 ft 471 kts 86°
2026-05-05 10:59 52.43806 5.62024 34969 ft 472 kts 86°
2026-05-05 11:00 52.44510 5.72737 34948 ft 473 kts 86°
2026-05-05 11:00 52.45207 5.83469 34948 ft 473 kts 86°
2026-05-05 11:01 52.45890 5.94211 34964 ft 474 kts 86°
2026-05-05 11:01 52.46570 6.04964 34926 ft 475 kts 86°
2026-05-05 11:02 52.47241 6.15755 34928 ft 476 kts 86°
2026-05-05 11:02 52.47902 6.26588 34921 ft 478 kts 86°
2026-05-05 11:03 52.48551 6.37437 34932 ft 478 kts 87°
2026-05-05 11:03 52.49192 6.48298 34932 ft 478 kts 87°
2026-05-05 11:04 52.49826 6.59179 34918 ft 480 kts 87°
2026-05-05 11:04 52.50453 6.70087 34933 ft 481 kts 87°
2026-05-05 11:05 52.51064 6.81021 34924 ft 481 kts 87°
2026-05-05 11:05 52.51673 6.91971 34927 ft 482 kts 87°
2026-05-05 11:06 52.52273 7.02942 34920 ft 483 kts 88°
2026-05-05 11:06 52.52863 7.13933 34919 ft 484 kts 88°
2026-05-05 11:07 52.53441 7.24964 34925 ft 485 kts 88°
2026-05-05 11:07 52.54013 7.36015 34952 ft 486 kts 88°
2026-05-05 11:08 52.54580 7.47067 34954 ft 486 kts 88°
2026-05-05 11:08 52.55132 7.58126 34935 ft 486 kts 88°
2026-05-05 11:09 52.55664 7.69122 34934 ft 486 kts 88°
2026-05-05 11:09 52.56194 7.80284 34926 ft 487 kts 88°
2026-05-05 11:10 52.56713 7.91326 34944 ft 488 kts 88°
2026-05-05 11:10 52.57231 8.02443 34935 ft 488 kts 88°
2026-05-05 11:11 52.57734 8.13591 34937 ft 489 kts 88°
2026-05-05 11:11 52.58217 8.24757 34941 ft 490 kts 88°
2026-05-05 11:12 52.58704 8.35943 34949 ft 490 kts 88°
2026-05-05 11:12 52.59184 8.47130 34929 ft 490 kts 89°
2026-05-05 11:13 52.59643 8.58326 34909 ft 491 kts 88°
2026-05-05 11:13 52.60086 8.69542 34907 ft 492 kts 89°
2026-05-05 11:14 52.60526 8.80776 34910 ft 492 kts 89°
2026-05-05 11:14 52.60961 8.92016 34917 ft 492 kts 89°
2026-05-05 11:15 52.61386 9.03258 34920 ft 492 kts 89°
2026-05-05 11:15 52.61798 9.14517 34918 ft 493 kts 89°
2026-05-05 11:16 52.62194 9.25795 34913 ft 493 kts 89°
2026-05-05 11:16 52.62541 9.36995 34914 ft 493 kts 92°
2026-05-05 11:17 52.62165 9.48215 34923 ft 491 kts 96°
2026-05-05 11:17 52.61716 9.59418 34924 ft 491 kts 96°
2026-05-05 11:18 52.61265 9.70621 34938 ft 491 kts 97°
2026-05-05 11:18 52.60799 9.81822 34934 ft 491 kts 97°
2026-05-05 11:19 52.60319 9.93022 34937 ft 491 kts 97°
2026-05-05 11:19 52.59832 10.04218 34928 ft 491 kts 97°
2026-05-05 11:20 52.59334 10.15417 34928 ft 491 kts 97°
2026-05-05 11:20 52.58831 10.26618 34925 ft 491 kts 97°
2026-05-05 11:21 52.58313 10.37823 34910 ft 492 kts 97°
2026-05-05 11:21 52.57782 10.49027 34870 ft 492 kts 97°
2026-05-05 11:21 52.57515 10.54561 34612 ft 492 kts 97°
2026-05-05 11:22 52.57241 10.60169 34371 ft 492 kts 97°
2026-05-05 11:22 52.56964 10.65781 34134 ft 493 kts 97°
2026-05-05 11:22 52.56684 10.71411 33889 ft 494 kts 97°
2026-05-05 11:22 52.56401 10.77065 32943 ft 502 kts 97°
2026-05-05 11:23 52.56111 10.82808 31990 ft 506 kts 97°
2026-05-05 11:23 52.55816 10.88581 31285 ft 505 kts 97°
2026-05-05 11:23 52.55522 10.94308 30698 ft 502 kts 98°
2026-05-05 11:23 52.55223 11.00005 30055 ft 499 kts 98°
2026-05-05 11:24 52.54922 11.05671 29392 ft 496 kts 98°
2026-05-05 11:24 52.54728 11.11295 28852 ft 492 kts 91°
2026-05-05 11:24 52.54850 11.16891 28272 ft 487 kts 89°
2026-05-05 11:24 52.54986 11.22418 27700 ft 482 kts 89°
2026-05-05 11:25 52.55120 11.27891 27138 ft 477 kts 89°
2026-05-05 11:25 52.55248 11.33302 26579 ft 472 kts 89°
2026-05-05 11:25 52.55369 11.38663 26031 ft 467 kts 89°
2026-05-05 11:25 52.55482 11.43971 25492 ft 462 kts 89°
2026-05-05 11:26 52.55593 11.49223 24965 ft 458 kts 89°
2026-05-05 11:26 52.55699 11.54421 24457 ft 453 kts 89°
2026-05-05 11:26 52.55800 11.59571 23958 ft 449 kts 89°
2026-05-05 11:26 52.55896 11.64683 23479 ft 447 kts 90°
2026-05-05 11:27 52.55992 11.69768 22944 ft 443 kts 89°
2026-05-05 11:27 52.56089 11.74783 22488 ft 436 kts 89°
2026-05-05 11:27 52.56183 11.79748 22017 ft 432 kts 90°
2026-05-05 11:27 52.56272 11.84651 21558 ft 427 kts 90°
2026-05-05 11:28 52.56359 11.89505 21088 ft 423 kts 90°
2026-05-05 11:28 52.56444 11.94315 20616 ft 419 kts 90°
2026-05-05 11:28 52.56525 11.99090 20135 ft 416 kts 90°
2026-05-05 11:28 52.56601 12.03850 19649 ft 418 kts 89°
2026-05-05 11:29 52.56675 12.08626 19135 ft 418 kts 90°
2026-05-05 11:29 52.56719 12.13395 18642 ft 416 kts 91°
2026-05-05 11:29 52.56725 12.18140 18117 ft 415 kts 92°
2026-05-05 11:29 52.56735 12.22853 17616 ft 410 kts 88°
2026-05-05 11:30 52.57079 12.27500 17121 ft 408 kts 82°
2026-05-05 11:30 52.57517 12.32095 16601 ft 406 kts 82°
2026-05-05 11:30 52.57961 12.36649 16059 ft 403 kts 82°
2026-05-05 11:30 52.58402 12.41165 15605 ft 397 kts 82°
2026-05-05 11:31 52.58839 12.45639 15068 ft 393 kts 82°
2026-05-05 11:31 52.59264 12.50010 14519 ft 391 kts 82°
2026-05-05 11:31 52.59693 12.54474 13930 ft 390 kts 82°
2026-05-05 11:31 52.60110 12.58870 13413 ft 387 kts 82°
2026-05-05 11:32 52.60510 12.63143 12954 ft 380 kts 83°
2026-05-05 11:32 52.60552 12.67448 12358 ft 375 kts 99°
2026-05-05 11:32 52.59889 12.71535 11865 ft 367 kts 115°
2026-05-05 11:32 52.58626 12.75075 11601 ft 351 kts 131°
2026-05-05 11:33 52.56941 12.77863 11368 ft 339 kts 145°
2026-05-05 11:33 52.55062 12.80159 11131 ft 336 kts 146°
2026-05-05 11:33 52.53187 12.82429 10886 ft 334 kts 146°
2026-05-05 11:33 52.51318 12.84687 10642 ft 333 kts 146°
2026-05-05 11:34 52.49454 12.86936 10412 ft 332 kts 146°
2026-05-05 11:34 52.47617 12.89155 10231 ft 323 kts 146°
2026-05-05 11:34 52.45840 12.91306 10116 ft 312 kts 146°
2026-05-05 11:34 52.44123 12.93380 9979 ft 302 kts 146°
2026-05-05 11:35 52.42447 12.95400 9785 ft 297 kts 146°
2026-05-05 11:35 52.40799 12.97381 9658 ft 291 kts 146°
2026-05-05 11:35 52.39185 12.99308 9521 ft 283 kts 148°
2026-05-05 11:35 52.37460 13.00694 9382 ft 270 kts 167°
2026-05-05 11:36 52.36262 13.01109 9285 ft 262 kts 179°
2026-05-05 11:36 52.34523 13.00661 9045 ft 250 kts 209°
2026-05-05 11:36 52.33228 12.98901 8855 ft 240 kts 238°
2026-05-05 11:36 52.32658 12.96403 8702 ft 236 kts 262°
2026-05-05 11:37 52.32436 12.93721 8536 ft 238 kts 259°
2026-05-05 11:37 52.31939 12.91166 8387 ft 233 kts 248°
2026-05-05 11:37 52.31341 12.88745 8225 ft 226 kts 249°
2026-05-05 11:37 52.30585 12.85652 8023 ft 217 kts 249°
2026-05-05 11:38 52.30209 12.84111 7923 ft 215 kts 249°
2026-05-05 11:38 52.29658 12.81839 7757 ft 215 kts 249°
2026-05-05 11:38 52.29110 12.79572 7500 ft 214 kts 249°
2026-05-05 11:38 52.28576 12.77330 7212 ft 215 kts 249°
2026-05-05 11:39 52.27998 12.75037 6917 ft 216 kts 240°
2026-05-05 11:39 52.26944 12.73368 6630 ft 219 kts 207°
2026-05-05 11:39 52.25452 12.72956 6338 ft 223 kts 173°
2026-05-05 11:39 52.23979 12.73776 6031 ft 226 kts 157°
2026-05-05 11:40 52.22566 12.74902 5716 ft 226 kts 155°
2026-05-05 11:40 52.21162 12.76065 5420 ft 227 kts 155°
2026-05-05 11:40 52.19823 12.77436 5159 ft 230 kts 135°
2026-05-05 11:40 52.18959 12.79616 4903 ft 230 kts 112°
2026-05-05 11:41 52.18674 12.82133 4778 ft 225 kts 86°
2026-05-05 11:41 52.19071 12.84563 4668 ft 223 kts 66°
2026-05-05 11:41 52.19687 12.86878 4549 ft 222 kts 66°
2026-05-05 11:41 52.20308 12.89188 4411 ft 222 kts 65°
2026-05-05 11:42 52.20925 12.91494 4287 ft 222 kts 66°
2026-05-05 11:42 52.21537 12.93792 4162 ft 221 kts 66°
2026-05-05 11:42 52.22147 12.96085 4052 ft 220 kts 66°
2026-05-05 11:42 52.22756 12.98373 3950 ft 220 kts 65°
2026-05-05 11:43 52.23365 13.00663 3851 ft 219 kts 66°
2026-05-05 11:43 52.23971 13.02938 3772 ft 218 kts 66°
2026-05-05 11:43 52.24570 13.05203 3693 ft 218 kts 66°
2026-05-05 11:43 52.25137 13.07495 3616 ft 217 kts 68°
2026-05-05 11:44 52.25688 13.09791 3548 ft 217 kts 68°
2026-05-05 11:44 52.26232 13.12069 3468 ft 213 kts 68°
2026-05-05 11:44 52.26758 13.14272 3395 ft 203 kts 68°
2026-05-05 11:44 52.27256 13.16374 3346 ft 196 kts 69°
2026-05-05 11:45 52.27729 13.18397 3254 ft 184 kts 68°
2026-05-05 11:45 52.28180 13.20287 3204 ft 175 kts 68°
2026-05-05 11:45 52.28624 13.22137 3129 ft 174 kts 68°
2026-05-05 11:45 52.29067 13.23977 3049 ft 174 kts 68°
2026-05-05 11:46 52.29508 13.25810 2860 ft 173 kts 68°
2026-05-05 11:46 52.29927 13.27554 2651 ft 158 kts 68°
2026-05-05 11:46 52.30319 13.29186 2456 ft 152 kts 68°
2026-05-05 11:46 52.30701 13.30777 2261 ft 150 kts 68°
2026-05-05 11:47 52.31078 13.32350 2059 ft 148 kts 68°
2026-05-05 11:47 52.31453 13.33909 1859 ft 147 kts 68°
2026-05-05 11:47 52.31826 13.35456 1690 ft 146 kts 68°
2026-05-05 11:47 52.32197 13.36993 1471 ft 145 kts 67°
2026-05-05 11:48 52.32924 13.40027 1077 ft 143 kts 68°
2026-05-05 11:48 52.33285 13.41545 881 ft 143 kts 68°
2026-05-05 11:48 52.33645 13.43059 697 ft 143 kts 68°
2026-05-05 11:49 52.34005 13.44568 507 ft 142 kts 68°
2026-05-05 11:49 52.34362 13.46074 322 ft 142 kts 68°
2026-05-05 11:49 52.34715 13.47567 163 ft 134 kts 68°
2026-05-05 11:49 52.35002 13.48773 154 ft 90 kts 69°
2026-05-05 11:50 52.35160 13.49255 154 ft 20 kts 34°
2026-05-05 11:50 52.35241 13.49375 154 ft 16 kts 38°
2026-05-05 11:50 52.35333 13.49495 154 ft 18 kts 39°
2026-05-05 11:50 52.35432 13.49631 154 ft 19 kts 49°
2026-05-05 11:51 52.35489 13.49834 154 ft 20 kts 68°
2026-05-05 11:51 52.35541 13.50051 154 ft 16 kts 69°
2026-05-05 11:51 52.35583 13.50229 154 ft 17 kts 69°
2026-05-05 11:51 52.35628 13.50417 154 ft 18 kts 69°
2026-05-05 11:52 52.35674 13.50614 154 ft 19 kts 69°
2026-05-05 11:52 52.35724 13.50798 154 ft 15 kts 52°
2026-05-05 11:52 52.35818 13.50796 154 ft 15 kts 340°
2026-05-05 11:52 52.35916 13.50734 154 ft 16 kts 339°
2026-05-05 11:53 52.36018 13.50670 154 ft 16 kts 339°
2026-05-05 11:53 52.36122 13.50604 154 ft 16 kts 339°
2026-05-05 11:53 52.36226 13.50538 154 ft 15 kts 339°
2026-05-05 11:53 52.36232 13.50534 154 ft 0 kts 339°
2026-05-05 11:54 52.36245 13.50526 154 ft 5 kts 339°
2026-05-05 11:54 52.36286 13.50519 154 ft 6 kts 23°
2026-05-05 11:54 52.36303 13.50563 154 ft 4 kts 65°
2026-05-05 11:54 52.36311 13.50593 154 ft 3 kts 69°
2026-05-05 11:55 52.36319 13.50625 155 ft 3 kts 69°
2026-05-05 11:55 52.36320 13.50629 155 ft 0 kts 69°
2026-05-05 12:03 52.36320 13.50630 155 ft 0 kts 69°